Weather in Chernigovka

Russia / Lipetsk Oblast     52°29′36″N   39°05′31″E
temp.,
°C
wind,
m/s
gust,
m/s
humid.,
%
clouds,
%
prec.,
mm/h
press.,
hPa
HPBL,
m
16 january, sun
sun1600:00−5nw8158799 0.1 1002646
03:00−6nw71490100 0.1 1005668
06:00−6nw7149079 0.0 1006482
09:00−6nw6149072 0.0 1009457
12:00−5nw5129117 0.0 1010607
15:00−5nw5109286 0.0 1012437
18:00−6wnw4990100 0.0 1013346
21:00−5w389399 0.1 1013242
17 january, mon
mon1700:00−11wsw389757 0.0 1013102
03:00−12sw4119653 0.0 1011156
06:00−9sw6159360 0.0 1008344
09:00−8ssw7179299 0.0 1004413
12:00−4ssw91788100 0.0 1000723
15:00−3ssw91695100 1.0 997895
18:00−2ssw81595100 0.8 995807
21:00−2ssw81691100 1.0 994699
18 january, tue
tue1800:00−2ssw71492100 0.1 993685
03:00−1ssw61296100 0.8 992616
06:00−2ssw51197100 0.8 992602
09:00−4wnw4796100 1.1 994260
12:00−4wnw4594100 0.1 997305
15:00−4nw3595100 0.3 999263
18:00−6wnw3597100 0.3 1002192
21:00−5wnw3796100 1.3 1004298
19 january, wed
wed1900:00−6nw5995100 1.0 1006343
03:00−7n51094100 1.2 1008409
06:00−8n6119499 0.4 1011425
09:00−10n6119499 0.6 1014412
12:00−10n5792100 0.1 1015393
15:00−10n4792100 0.4 1017323
18:00−13nnw359645 0.2 1018117
21:00−18n239972 0.3 102049
20 january, thu
thu2000:00−23nnw2210079 0.0 102111
03:00−23ne0110097 0.0 10219
06:00−24wsw11100100 0.0 10219
09:00−24sse22100100 0.0 102215
12:00−14s359692 0.0 1022156
15:00−12s379528 0.0 1020218
18:00−17sse379976 0.0 102175
21:00−17sse41198100 0.0 1021166